STARLINK-35280, 66025

Orbit data source: Space-Track

STARLINK-35280, 66025 is a payload satellite owned by SpaceX/Seattle (US) in LEO that was launched on Thu, 16 Oct 2025 UTC via an FALCON 9 launch vehicle from the Air Force Eastern Test Range (AFETR). Payload-class satellites include a variety of spacecraft equipped with specific instruments for various scientific and technological missions. These include communications satellites like Starlink; space stations such as the ISS; scientific satellites like the Hubble; Earth observation satellites from companies like Planet Labs, Umbra, and HawkEye 360; GPS; miniature CubeSats for education and research; and military/defense satellites.

Not visible in the next 10 days
Identifier
66025, 2025-232W
Orbit
LEO
Country
Flag of USUS
Related business
Manufacturer
SpaceX/Seattle
Mission
Operational spacecraft
Bus & Motor
STARLINK V2MO, Unknown motor
Mass
575 kg wet, ~530 kg dry
Launch date (UTC)
2025-10-16 (1 week ago)
Launch vehicle
FALCON 9
Launch site
Air Force Eastern Test Range (AFETR)
Object type
Payload
Rocket body
Debris
Shape & HBR
Unknown shape, 17.7 m
Radar Cross Section
RCS unknown

Expand to show TLE details & history
Last TLE update: 4 hours ago

TLE from 4 hours ago
0 STARLINK-35280
1 66025U 25232W   25299.16668980 -.01620352  00000-0 -74459-2 0  9996
2 66025  53.1554  13.9120 0001155  73.6098  60.9343 15.85754513  1847
Epoch: 2025-10-26T04:00Z
TLE epoch observation values (Epoch: 2025-10-26T04:00:01.998Z)
Latitude
34.88244°
Longitude
67.82248°
Altitude
316.379 km
Speed
7.723 km/s
True Right ascension
10h 50m 28s
True Declination
34° 42' 38"
Sunlit
Object was in daylight at epoch
Visualization orbit readout
Latitude
Unknown
Longitude
Unknown
Altitude
Unknown
Speed
Unknown
Apparent Right ascension
Unknown
Apparent Declination
Unknown
Sunlit
N/A
Visualization observer readout
Local Sidereal Time
03:42:07
Azimuth
Unknown
Elevation
Unknown
Doppler factor
Unknown
Orbital elements
Apogee altitude
315.237 km
Perigee altitude
313.691 km
Semi-major axis
6,692.601 km
Eccentricity
0.00012
Inclination
53.1554°
RAAN
13.912°
Arg. of periapsis
73.6098°
True anomaly
60.94587°
Mean anomaly
60.9343°
Eccentric anomaly
60.94008°
Mean motion
3.96416 °/min
Orbital period
90.81 mins
BSTAR
-0.0074459
Loading maneuver chart data...
Computing Atmospheric mass density...
Loading historical data...
Loading historical data...
Loading historical data...
Loading historical data...
Loading historical data...
Loading historical data...
Loading historical data...

Documentation

Showing up to 5 results
|